Theta_e
289 290 289 289 290 290 290 289 286 282 283 290 289 294 295 295 294 293 294 293 293 296 296 296 296 297 301 302 304 305 306 309 312 315 318 319 320 322
289 289 289 289 290 290 290 289 289 286 283 290 291 293 293 292 293 293 293 291 292 294 294 295 296 297 299 300 301 302 304 306 309 313 316 316 318 319
288 288 288 289 289 290 290 290 289 289 285 288 291 290 288 288 289 292 292 291 290 292 292 294 294 295 296 298 299 300 301 302 305 308 313 313 314 317
286 287 287 288 288 289 289 288 288 289 287 284 287 288 287 288 288 288 289 291 290 289 291 291 292 293 294 295 297 298 299 299 300 303 307 309 311 312
287 286 287 287 287 288 287 287 287 288 287 285 285 287 287 288 289 288 287 289 289 288 290 289 291 291 293 294 296 296 297 298 299 299 303 305 307 308
286 286 286 287 286 286 286 286 287 286 286 285 285 286 288 288 288 287 286 290 287 287 289 288 287 289 290 293 294 294 296 299 300 299 300 302 303 304
285 286 287 286 285 286 286 286 286 286 286 285 285 286 287 287 285 285 284 286 287 286 287 287 286 286 286 291 292 293 296 298 300 299 299 300 301 301
284 285 286 285 286 286 286 286 287 286 286 286 285 284 284 283 284 282 283 284 284 287 285 287 286 285 285 286 292 292 294 294 294 295 296 297 297 297
283 283 284 285 285 286 286 285 285 286 285 284 283 283 282 283 282 282 283 282 284 285 285 285 286 285 285 285 291 291 291 292 292 293 292 293 293 293
282 282 283 284 285 285 284 284 284 284 283 284 283 283 283 282 282 282 281 282 284 284 285 283 285 285 286 285 287 290 291 290 290 290 290 290 290 290
281 282 282 283 284 285 284 282 282 283 283 282 281 281 281 281 281 281 283 281 284 283 285 286 284 284 285 284 283 286 287 289 289 289 289 289 288 287
281 281 280 282 283 284 283 281 281 282 281 281 281 280 279 280 279 279 280 280 283 283 284 284 284 283 284 284 283 282 282 284 288 288 287 287 286 284
281 281 282 281 282 283 282 282 281 281 280 279 281 281 281 280 279 279 278 278 281 282 281 283 284 284 283 282 282 281 280 280 280 281 286 286 285 283
281 281 281 281 281 281 281 279 278 277 280 281 281 280 279 278 278 278 277 277 277 277 278 280 283 284 283 281 280 281 279 279 279 278 278 280 281 282
280 280 280 280 278 277 277 276 274 280 280 281 279 277 275 275 276 278 279 278 278 277 277 278 283 283 284 282 279 278 278 276 278 276 276 276 276 276
280 279 279 278 277 276 273 275 275 277 277 277 276 275 276 277 276 275 278 278 280 278 277 278 279 282 281 280 279 276 277 276 276 276 275 275 276 277
277 275 275 275 276 277 277 275 276 276 276 275 276 275 276 277 276 275 276 278 277 276 275 276 277 276 275 278 276 276 275 274 275 276 275 273 274 276
277 277 277 276 276 278 278 278 276 272 275 275 275 274 275 276 276 276 277 278 276 275 275 274 276 278 278 275 276 273 273 273 273 274 275 273 272 274
280 279 279 278 277 277 276 276 278 276 271 274 274 274 274 274 276 276 275 275 274 274 272 271 274 278 278 275 272 274 272 272 272 270 272 273 271 272
281 281 279 278 277 276 274 275 275 273 272 273 272 272 272 274 275 275 275 274 274 273 273 272 271 270 276 276 272 270 273 273 273 271 269 271 271 272
282 280 279 279 276 276 275 274 274 274 273 272 272 271 271 273 273 272 271 266 268 273 272 271 267 262 268 272 271 270 271 272 272 272 270 270 269 270
282 279 278 276 275 275 274 272 271 270 270 271 272 271 271 272 272 270 271 272 272 272 271 269 268 269 271 272 270 268 269 272 274 274 273 271 271 270
281 280 278 276 275 274 273 272 271 272 271 272 272 271 270 270 270 271 271 269 269 268 269 269 269 269 267 269 269 268 266 269 271 270 269 275 274 274
Wind_Speed
3 3 3 4 4 5 5 5 4 5 6 4 6 9 10 10 13 15 16 20 28 29 27 25 23 22 23 22 22 23 24 24 24 23 18 19 16 19
3 4 4 3 5 5 5 5 6 7 6 6 9 11 11 11 13 15 16 19 22 26 27 23 22 23 23 22 22 23 23 23 22 23 21 15 19 19
3 4 5 4 4 5 5 6 6 7 9 9 7 9 11 12 11 11 11 11 11 19 23 22 20 20 22 23 23 23 23 22 21 21 17 15 17 18
3 4 4 3 5 5 5 7 6 8 8 14 10 9 9 10 9 11 9 8 9 14 21 21 19 20 22 23 24 23 22 22 20 19 15 11 13 14
3 4 5 5 5 5 6 6 6 6 7 7 9 7 6 7 9 6 7 8 6 14 15 19 21 22 24 25 26 25 22 20 18 16 14 9 8 11
3 4 4 5 6 7 6 7 6 6 6 6 7 8 8 6 5 10 11 8 6 7 10 12 18 20 25 26 27 26 23 18 10 9 10 9 6 10
3 4 4 4 7 7 6 7 8 7 6 6 6 7 7 8 9 7 8 9 1 5 7 8 8 10 14 20 23 30 28 24 14 8 6 7 8 8
2 3 4 4 5 8 9 11 9 5 4 4 4 7 9 9 7 8 7 5 4 4 6 7 8 10 10 13 30 32 33 32 32 30 28 26 23 24
3 3 3 3 5 6 8 8 5 7 6 6 8 8 9 7 9 10 8 5 3 5 4 5 7 9 9 12 30 31 33 33 34 34 35 34 33 33
3 3 4 4 4 7 6 6 5 4 6 5 6 8 8 9 8 8 9 6 3 3 3 4 6 7 8 10 28 31 31 31 32 31 34 36 37 36
4 4 4 4 6 8 5 6 6 4 5 6 7 7 8 9 9 7 2 4 1 2 4 1 3 4 7 9 11 26 30 32 32 30 30 30 29 33
4 4 6 6 5 6 4 5 5 6 7 7 4 4 5 6 9 6 5 4 2 1 4 3 2 3 2 6 9 11 11 26 29 32 31 30 27 13
4 3 3 5 4 5 4 3 4 7 5 4 4 3 3 4 5 7 7 6 5 2 5 3 2 1 3 2 6 9 10 11 11 14 29 32 31 21
4 3 3 5 3 4 2 4 5 4 3 3 3 3 4 4 5 5 6 6 5 6 8 6 3 3 2 3 3 5 9 9 9 10 10 16 25 29
4 5 5 4 3 3 1 3 3 2 2 2 3 3 3 4 4 2 1 1 5 8 8 7 4 2 3 4 4 4 4 7 8 8 9 10 10 9
7 5 5 5 3 1 2 1 1 2 2 2 3 3 3 3 2 2 2 3 2 5 9 12 8 6 7 6 6 5 4 3 6 8 8 9 10 10
6 3 4 4 5 4 3 2 1 2 2 1 2 3 2 3 3 2 2 2 4 3 4 7 10 13 11 6 6 6 6 6 6 5 7 8 8 8
4 5 6 6 6 5 5 4 3 3 2 2 2 2 2 3 3 3 4 4 5 4 4 3 2 4 3 9 12 5 6 5 5 6 5 7 8 7
6 7 6 6 6 5 5 5 5 4 2 3 1 1 0 1 1 3 3 3 3 3 3 3 3 1 2 2 2 11 4 4 3 5 6 6 6 6
7 7 6 5 6 5 5 5 4 4 4 3 3 2 1 1 1 2 2 2 2 2 2 2 3 3 3 2 3 3 7 3 3 4 3 4 5 6
9 8 6 5 5 5 5 5 5 5 4 4 3 3 3 2 2 2 2 2 0 1 2 3 3 1 2 2 5 4 5 7 4 2 3 3 3 1
6 6 6 5 5 6 5 5 5 5 5 4 3 3 3 2 2 3 3 3 2 1 3 4 1 1 1 2 6 7 5 7 12 15 9 3 0 2
7 6 6 5 5 5 6 6 5 5 5 4 4 3 3 3 2 1 2 1 2 2 2 4 3 2 3 4 6 6 8 7 5 4 6 10 10 11
Wind_Direction
266 268 269 281 287 282 280 282 293 313 315 332 337 322 326 323 319 322 321 323 321 321 321 313 315 309 305 310 306 301 300 293 296 292 279 271 262 257
271 268 273 270 270 276 270 265 259 263 270 305 311 319 327 316 315 321 325 320 316 320 326 319 320 325 323 320 314 311 308 301 292 301 284 293 288 273
294 290 281 279 275 274 271 267 270 270 276 294 307 314 313 315 314 317 321 311 317 331 333 337 335 334 334 331 327 320 310 303 294 292 304 304 315 298
308 280 284 297 290 287 290 291 289 289 287 295 309 315 311 315 299 302 310 314 322 335 345 343 347 351 350 346 335 331 317 303 290 283 288 300 317 328
277 288 298 302 301 307 303 297 295 292 286 288 299 306 302 307 314 298 323 328 338 331 345 346 350 358 358 350 351 341 326 303 287 270 269 270 301 321
286 285 287 298 304 308 304 298 295 291 282 279 287 299 301 306 321 330 332 338 340 340 355 1 350 350 356 356 3 359 355 334 306 269 276 281 316 323
231 259 276 302 293 298 308 311 305 294 288 284 287 294 309 329 337 337 315 315 329 358 345 10 356 360 2 4 11 14 12 22 21 3 332 345 353 359
229 266 284 288 312 310 323 316 306 319 304 304 305 310 317 326 329 323 317 329 343 43 342 14 4 11 5 4 20 22 31 39 44 49 57 63 61 63
254 275 290 293 303 325 331 328 323 338 357 324 312 319 314 332 321 314 319 314 306 332 335 16 3 25 12 8 17 31 30 42 49 53 58 59 64 64
245 263 279 307 326 324 335 337 335 336 347 332 311 311 313 317 307 300 293 292 265 278 325 48 2 35 13 19 20 27 35 38 41 47 57 62 65 65
219 232 261 282 314 331 333 337 336 323 330 332 334 333 331 325 332 309 311 309 281 345 357 9 18 5 41 20 10 24 31 36 40 40 46 53 57 61
210 220 235 267 306 319 326 333 328 334 331 336 333 338 350 352 0 5 334 310 318 244 29 317 346 347 59 27 20 15 22 30 41 46 46 48 50 54
213 208 214 248 287 300 321 298 307 319 314 304 307 337 4 5 20 12 8 351 333 21 20 320 318 27 57 77 38 26 24 22 29 35 49 54 55 53
208 197 204 235 244 266 293 331 328 311 306 312 337 5 1 7 8 14 22 29 29 8 344 343 322 319 119 99 60 43 38 32 35 40 40 47 54 61
205 200 196 207 217 225 316 348 329 335 328 325 357 353 338 321 313 346 66 43 67 37 16 4 349 34 19 101 111 49 56 35 39 41 45 45 45 38
187 189 197 207 222 185 237 267 9 5 353 339 331 319 311 316 327 355 315 2 36 52 39 31 27 32 73 62 87 79 34 71 46 54 56 49 45 43
142 159 200 211 217 210 199 215 210 211 210 264 297 321 344 344 25 1 22 49 60 55 57 51 70 72 61 42 70 72 76 75 53 63 68 68 51 49
169 196 212 214 220 205 201 194 207 211 215 246 277 326 359 13 33 48 50 65 79 64 66 46 56 123 114 69 50 86 67 68 50 56 60 80 70 44
210 203 212 202 212 205 200 199 210 200 141 242 266 317 346 69 31 76 78 80 82 58 47 7 328 299 128 101 84 35 111 112 106 61 40 57 82 55
211 215 210 202 202 199 194 198 199 180 195 204 212 213 224 218 177 142 123 131 130 121 111 59 33 14 346 71 117 40 41 93 80 94 103 66 62 57
204 218 212 203 201 196 192 190 197 197 189 183 195 205 205 210 176 161 121 71 105 164 105 70 54 334 98 162 99 99 41 51 32 51 126 79 62 88
210 211 201 200 199 191 181 178 187 190 189 197 197 195 197 219 193 186 189 172 169 138 95 113 136 196 11 47 126 128 114 92 83 74 67 50 331 165
207 211 200 195 192 184 177 178 192 195 194 194 190 189 181 204 211 211 174 148 134 138 140 146 138 87 60 90 126 125 132 132 128 85 45 32 85 98